Home   Weather   Ingolstadt   Past weeks

Flag for Germany Past Weather in Ingolstadt, Bavaria, Germany — Yesterday and Last 2 Weeks

Now
46 °F

Cool.


Feels Like: 46 °F
Forecast: 46 / 67 °F
Wind: 2 mph from East

Location: Ingolstadt Airport

Current Time: Sep 25, 2016 at 4:08:34 AM

Latest Report: Sep 25, 2016 at 3:20 AM


Visibility: 0 mi

Pressure: 30.21 "Hg

Humidity: 93%

Dew Point: 45 °F

Location of IngolstadtLocation

Past Weather in Ingolstadt — Graph

°F

Ingolstadt Temperature Yesterday

Maximum temperature yesterday: 68 °F (at 2:20 PM)
Minimum temperature yesterday: 45 °F (at 4:20 AM)
Average temperature yesterday: 55 °F

High & Low Weather Summary for the Past Weeks

 TemperatureHumidityPressure
High84 °F (Sep 10, 4:20 PM)100% (Sep 11, 6:20 AM)30.36 "Hg (Sep 11, 6:20 AM)
Low41 °F (Sep 21, 7:20 AM)31% (Sep 15, 4:20 PM)29.86 "Hg (Sep 15, 5:20 AM)
Average61 °F76%30.05 "Hg
* Reported Sep 10 2:20 AM — Sep 25 2:20 AM, Ingolstadt, Weather by CustomWeather, © 2016

Note: Actual official high and low records may vary slightly from our data, if they occured in-between our weather recording intervals... More about our weather records

Advertising

Ingolstadt Weather History for the Previous 24 Hours

Scroll right to see more
 ConditionsComfort  
Time TempWeatherWind HumidityBarometerVisibility
2:20 AM
Sun, Sep 25
45 °FQuite cool.No wind93%30.21 "Hg1 mi
1:20 AM48 °FCool.1 mph94%30.21 "Hg0 mi
12:20 AM48 °FCool.2 mph94%30.21 "Hg5 mi
11:20 PM
Sat, Sep 24
50 °FPassing clouds.3 mph94%30.24 "HgN/A
10:20 PM52 °FPassing clouds.1 mph94%30.24 "HgN/A
9:20 PM54 °FPassing clouds.1 mph88%30.24 "HgN/A
8:20 PM59 °FPassing clouds.3 mph72%30.24 "HgN/A
7:20 PM63 °FMild.3 mph64%30.24 "Hg6 mi
6:20 PM66 °FMild.3 mph56%30.24 "HgN/A
5:20 PM68 °FMild.2 mph46%30.24 "HgN/A
4:20 PM68 °FMild.6 mph49%30.27 "HgN/A
3:20 PM68 °FPassing clouds.3 mph46%30.27 "HgN/A
2:20 PM68 °FPassing clouds.2 mph53%30.30 "HgN/A
1:20 PM66 °FPassing clouds.3 mph60%30.30 "HgN/A
12:20 PM63 °FPassing clouds.3 mph73%30.33 "HgN/A
11:20 AM55 °FCool.2 mph94%30.33 "Hg5 mi
10:20 AM50 °FCool.1 mph100%30.36 "Hg1 mi
9:20 AM48 °FCool.1 mph100%30.36 "Hg0 mi
8:20 AM46 °FCool.2 mph100%30.33 "Hg0 mi
7:20 AM46 °FCool.1 mph93%30.33 "Hg0 mi
6:20 AM48 °FCool.1 mph94%30.33 "Hg0 mi
5:20 AM46 °FCool.No wind100%30.33 "Hg0 mi
4:20 AM45 °FQuite cool.1 mph100%30.33 "Hg0 mi
Weather by CustomWeather, © 2016

See weather overviewHow to use our weather pages